K0QED Weather Reports


Display with metric or nautical units.
time (UTC)temp
F
wind
direction
speed
MPH
gust
MPH
rain 1hr
in
rain 24hr
in
rain mn
in
humidity
%
barometer
mb
20260505055030 42 349 0.0 0.0 0.00 0.03 0.03 91 1015.5
20260505054527 42 352 1.0 1.0 0.00 0.03 0.03 90 1015.5
20260505054026 42 359 0.0 1.0 0.00 0.03 0.03 88 1015.0
20260505053522 42 351 1.0 2.0 0.00 0.03 0.03 86 1015.6
20260505053019 42 1 1.0 1.0 0.00 0.03 0.03 85 1015.4
20260505052516 42 9 2.0 2.0 0.00 0.03 0.03 84 1015.0
20260505052014 42 0 2.0 2.0 0.00 0.03 0.03 84 1015.2
20260505051510 42 355 1.0 1.0 0.00 0.03 0.03 84 1015.2
20260505051009 42 336 0.0 0.0 0.00 0.03 0.03 84 1015.5
20260505050506 42 2 0.0 0.0 0.00 0.03 0.03 85 1015.2
20260505041434 43 3 3.0 3.0 0.00 0.03 0.03 84 1014.1
20260505040931 43 3 2.0 2.0 0.00 0.03 0.03 84 1014.4
20260505040428 43 4 3.0 5.0 0.00 0.03 0.03 83 1014.1
20260505035925 43 0 2.0 2.0 0.00 0.03 0.03 82 1014.0
20260505035421 43 16 1.0 2.0 0.00 0.03 0.03 82 1014.2
20260505034919 43 32 1.0 2.0 0.00 0.03 0.03 83 1014.4
20260505034415 43 26 2.0 2.0 0.00 0.03 0.03 82 1014.6
20260505033912 43 19 3.0 5.0 0.00 0.03 0.03 82 1014.2
20260505033409 43 22 1.0 1.0 0.00 0.03 0.03 82 1014.4
20260505032907 44 9 1.0 2.0 0.00 0.03 0.03 82 1014.4
20260505032403 44 1 3.0 3.0 0.00 0.03 0.03 81 1014.0
20260505031900 44 19 1.0 2.0 0.00 0.03 0.03 81 1014.1
20260505031357 44 25 3.0 3.0 0.00 0.03 0.03 81 1014.2
20260505030854 44 351 3.0 5.0 0.00 0.03 0.03 81 1014.4
20260505030350 44 351 1.0 2.0 0.00 0.03 0.03 82 1014.4
20260505025845 43 353 1.0 2.0 0.00 0.03 0.03 83 1014.4
20260505025343 43 9 1.0 2.0 0.00 0.03 0.03 85 1014.2
20260505024842 43 348 2.0 2.0 0.00 0.03 0.03 85 1014.0
20260505024339 43 359 1.0 1.0 0.00 0.03 0.03 86 1013.9
20260505023836 42 299 1.0 1.0 0.00 0.03 0.03 86 1014.2
20260505023333 42 335 1.0 1.0 0.00 0.03 0.03 87 1014.0
20260505022830 42 354 1.0 2.0 0.00 0.03 0.03 86 1014.2
20260505022327 42 19 2.0 2.0 0.00 0.03 0.03 86 1014.2
20260505021825 42 315 1.0 1.0 0.00 0.03 0.03 86 1014.2
20260505021321 42 346 1.0 2.0 0.00 0.03 0.03 87 1014.2
20260505020817 42 326 3.0 3.0 0.00 0.03 0.03 88 1014.4
20260505020313 42 10 2.0 2.0 0.07 0.03 0.03 88 1014.6
20260505015809 43 350 1.0 2.0 0.12 0.03 0.03 87 1014.6
20260505015307 44 355 2.0 2.0 0.05 0.02 0.02 85 1014.6
20260505014804 45 354 1.0 1.0 0.07 0.01 0.01 80 1014.6
20260505014301 46 346 2.0 2.0 0.07 0.01 0.01 75 1014.0
20260505013757 47 334 0.0 0.0 0.00 0.00 0.00 73 1014.2
20260505013254 49 23 1.0 1.0 0.00 0.00 0.00 69 1014.2
20260505012753 50 150 0.0 0.0 0.00 0.00 0.00 61 1014.2
20260505012250 51 329 2.0 2.0 0.00 0.00 0.00 54 1014.1
20260505011745 51 349 1.0 1.0 0.00 0.00 0.00 54 1014.2
20260505011243 51 281 1.0 1.0 0.00 0.00 0.00 53 1013.9
20260505010738 52 322 2.0 3.0 0.00 0.00 0.00 51 1013.7
20260505010235 52 283 1.0 2.0 0.00 0.00 0.00 48 1013.5
20260505005731 52 283 1.0 2.0 0.00 0.00 0.00 48 1013.2
20260505005228 52 338 3.0 3.0 0.00 0.00 0.00 48 1012.9
20260505004726 52 9 1.0 1.0 0.00 0.00 0.00 48 1012.5
20260505004222 53 352 2.0 2.0 0.00 0.00 0.00 48 1012.9
20260505003719 53 263 3.0 5.0 0.00 0.00 0.00 47 1012.2
20260505003217 53 348 3.0 3.0 0.00 0.00 0.00 46 1012.6
20260505002713 54 10 3.0 3.0 0.00 0.00 0.00 44 1012.5
20260505002211 54 10 3.0 3.0 0.00 0.00 0.00 43 1012.4
20260505001708 55 7 4.0 5.0 0.00 0.00 0.00 42 1012.2
20260505001205 55 7 3.0 3.0 0.00 0.00 0.00 42 1012.4
20260505000702 55 19 3.0 3.0 0.00 0.00 0.00 42 1012.2
20260505000200 56 5 2.0 2.0 0.00 0.00 0.00 42 1012.2
20260504235656 56 14 2.0 3.0 0.00 0.00 0.00 42 1012.5
20260504235152 57 23 5.0 6.0 0.00 0.00 0.00 41 1012.6
20260504234650 57 39 3.0 3.0 0.00 0.00 0.00 40 1012.2
20260504234147 58 343 3.0 3.0 0.00 0.00 0.00 38 1012.2
20260504233643 58 290 1.0 2.0 0.00 0.00 0.00 39 1012.1
20260504233139 59 41 3.0 3.0 0.00 0.00 0.00 38 1012.2
20260504232637 59 299 2.0 5.0 0.00 0.00 0.00 38 1012.2
20260504232133 59 25 1.0 2.0 0.00 0.00 0.00 38 1012.1
20260504231630 60 302 0.0 0.0 0.00 0.00 0.00 37 1012.2
20260504231127 60 245 2.0 2.0 0.00 0.00 0.00 36 1012.4
20260504230623 60 147 1.0 2.0 0.00 0.00 0.00 37 1012.4
20260504230122 60 181 0.0 1.0 0.00 0.00 0.00 37 1012.0
20260504225619 60 219 3.0 6.0 0.00 0.00 0.00 37 1012.1
20260504225115 60 265 1.0 2.0 0.00 0.00 0.00 37 1012.0
20260504224612 60 130 0.0 0.0 0.00 0.00 0.00 36 1012.4
20260504224109 60 43 0.0 1.0 0.00 0.00 0.00 37 1012.1
20260504223606 60 225 2.0 3.0 0.00 0.00 0.00 37 1011.9
20260504223102 60 255 1.0 1.0 0.00 0.00 0.00 36 1012.4
20260504222559 59 271 2.0 2.0 0.00 0.00 0.00 38 1012.4
20260504222056 61 86 2.0 3.0 0.00 0.00 0.00 33 1012.0
20260504221553 60 352 0.0 0.0 0.00 0.00 0.00 33 1012.0
20260504221050 60 118 0.0 1.0 0.00 0.00 0.00 32 1012.2
20260504220547 60 62 0.0 0.0 0.00 0.00 0.00 34 1012.1
20260504220044 59 280 0.0 1.0 0.00 0.00 0.00 32 1012.0
20260504215540 59 200 3.0 5.0 0.00 0.00 0.00 38 1012.5
20260504215038 60 120 3.0 5.0 0.00 0.00 0.00 33 1012.0
20260504214533 60 338 0.0 1.0 0.00 0.00 0.00 31 1012.2
20260504214030 60 271 1.0 1.0 0.00 0.00 0.00 30 1011.7
20260504213527 61 324 1.0 1.0 0.00 0.00 0.00 29 1011.7
20260504213024 62 11 3.0 5.0 0.00 0.00 0.00 28 1011.5
20260504212519 62 300 0.0 0.0 0.00 0.00 0.00 27 1011.6
20260504212017 62 268 0.0 0.0 0.00 0.00 0.00 26 1011.9
20260504211514 62 316 1.0 1.0 0.00 0.00 0.00 26 1011.9
20260504211011 63 6 2.0 2.0 0.00 0.00 0.00 26 1011.4
20260504210508 64 341 0.0 1.0 0.00 0.00 0.00 25 1011.7
20260504210005 64 161 1.0 1.0 0.00 0.00 0.00 24 1011.6
20260504205503 64 304 0.0 1.0 0.00 0.00 0.00 24 1011.6
20260504205000 64 238 0.0 1.0 0.00 0.00 0.00 24 1011.9
20260504204458 64 229 3.0 3.0 0.00 0.00 0.00 24 1012.0
20260504203957 64 233 0.0 0.0 0.00 0.00 0.00 26 1011.7
20260504203455 64 235 2.0 3.0 0.00 0.00 0.00 26 1012.1
20260504202950 63 338 0.0 0.0 0.00 0.00 0.00 27 1012.5
20260504202447 63 285 2.0 2.0 0.00 0.00 0.00 26 1012.4
20260504201944 63 308 1.0 1.0 0.00 0.00 0.00 25 1012.2
20260504201441 64 221 1.0 2.0 0.00 0.00 0.00 24 1012.1
20260504200939 63 292 1.0 2.0 0.00 0.00 0.00 24 1012.5
20260504200435 63 105 0.0 0.0 0.00 0.00 0.00 26 1012.4
20260504195932 62 358 2.0 2.0 0.00 0.00 0.00 26 1012.5
20260504195428 62 294 1.0 1.0 0.00 0.00 0.00 25 1012.2
20260504194924 61 226 3.0 3.0 0.00 0.00 0.00 26 1012.4
20260504194420 63 281 3.0 6.0 0.00 0.00 0.00 25 1012.6
20260504193916 63 250 2.0 2.0 0.00 0.00 0.00 23 1012.6
20260504193414 64 278 1.0 1.0 0.00 0.00 0.00 23 1012.6
20260504192913 64 251 0.0 1.0 0.00 0.00 0.00 23 1012.4
20260504192410 64 352 1.0 1.0 0.00 0.00 0.00 22 1012.5
20260504191909 68 173 0.0 0.0 0.00 0.00 0.00 22 1012.5
20260504191406 69 300 0.0 1.0 0.00 0.00 0.00 20 1012.6
20260504190901 67 351 2.0 3.0 0.00 0.00 0.00 20 1012.6
20260504190357 67 179 3.0 3.0 0.00 0.00 0.00 21 1012.7
20260504185854 67 261 1.0 1.0 0.00 0.00 0.00 20 1012.7
20260504185351 68 306 1.0 1.0 0.00 0.00 0.00 21 1012.7
20260504184847 66 188 3.0 5.0 0.00 0.00 0.00 22 1012.9
20260504184343 66 193 2.0 2.0 0.00 0.00 0.00 21 1013.0
20260504183839 66 271 4.0 5.0 0.00 0.00 0.00 20 1013.2
20260504183337 67 248 2.0 2.0 0.00 0.00 0.00 22 1013.4
20260504182834 67 25 1.0 2.0 0.00 0.00 0.00 22 1013.5
20260504182331 66 300 0.0 0.0 0.00 0.00 0.00 25 1013.6
20260504181828 62 190 1.0 2.0 0.00 0.00 0.00 24 1013.5
20260504181326 62 167 2.0 2.0 0.00 0.00 0.00 26 1013.5
20260504180824 63 75 2.0 2.0 0.00 0.00 0.00 24 1013.5
20260504180322 64 304 1.0 2.0 0.00 0.00 0.00 26 1013.9
20260504175820 63 326 1.0 2.0 0.00 0.00 0.00 25 1013.6
20260504175317 62 122 1.0 1.0 0.00 0.00 0.00 28 1013.4
20260504174815 62 257 1.0 1.0 0.00 0.00 0.00 29 1013.9
20260504174312 63 267 1.0 2.0 0.00 0.00 0.00 27 1014.0
20260504173809 65 322 1.0 2.0 0.00 0.00 0.00 28 1014.0
20260504173305 65 233 3.0 3.0 0.00 0.00 0.00 26 1014.0
20260504172803 66 309 0.0 0.0 0.00 0.00 0.00 26 1013.9
20260504172259 67 358 3.0 6.0 0.00 0.00 0.00 29 1014.4
20260504171755 64 314 1.0 2.0 0.00 0.00 0.00 29 1014.4
20260504171252 64 292 4.0 5.0 0.00 0.00 0.00 30 1014.5
20260504170749 63 256 4.0 6.0 0.00 0.00 0.00 32 1014.5
20260504170246 63 320 3.0 3.0 0.00 0.00 0.00 32 1014.6
20260504160205 58 248 3.0 3.0 0.00 0.00 0.00 37 1014.9
20260504151133 58 300 6.0 10.0 0.00 0.00 0.00 36 1015.0
20260504150630 58 259 2.0 2.0 0.00 0.00 0.00 36 1014.6
20260504150127 57 309 1.0 2.0 0.00 0.00 0.00 38 1014.9
20260504141055 54 300 0.0 1.0 0.00 0.00 0.00 39 1014.7
20260504140552 54 319 1.0 2.0 0.00 0.00 0.00 40 1014.6
20260504130516 49 318 1.0 3.0 0.00 0.00 0.00 42 1014.6
20260504110404 44 322 1.0 2.0 0.00 0.00 0.00 48 1014.9
20260504100321 44 319 0.0 0.0 0.00 0.00 0.00 50 1015.1
20260504081715 46 319 0.0 0.0 0.00 0.00 0.00 43 1015.7
20260504081211 46 304 1.0 1.0 0.00 0.00 0.00 42 1015.9
20260504080707 47 303 0.0 0.0 0.00 0.00 0.00 42 1015.9
20260504080204 47 312 0.0 1.0 0.00 0.00 0.00 42 1015.7
20260504070131 47 321 0.0 0.0 0.00 0.00 0.00 42 1016.2